Year,Month,Day,Hour,Minute,Value (Times are PST for windspeed in km/hr)
2016,10,05,00,00,13.40
2016,10,05,00,01,8.10
2016,10,05,00,02,8.10
2016,10,05,00,03,8.10
2016,10,05,00,04,8.10
2016,10,05,00,05,8.10
2016,10,05,00,06,12.80
2016,10,05,00,07,15.90
2016,10,05,00,08,10.00
2016,10,05,00,09,15.80
2016,10,05,00,10,15.80
2016,10,05,00,11,13.30
2016,10,05,00,12,10.50
2016,10,05,00,13,9.50
2016,10,05,00,14,16.30
2016,10,05,00,15,14.30
2016,10,05,00,16,11.70
2016,10,05,00,17,15.80
2016,10,05,00,18,11.60
2016,10,05,00,19,12.60
2016,10,05,00,20,11.30
2016,10,05,00,21,11.60
2016,10,05,00,22,13.10
2016,10,05,00,23,11.90
2016,10,05,00,24,10.70
2016,10,05,00,25,14.40
2016,10,05,00,26,11.00
2016,10,05,00,27,10.20
2016,10,05,00,28,10.30
2016,10,05,00,29,12.50
2016,10,05,00,30,11.70
2016,10,05,00,31,13.00
2016,10,05,00,32,9.20
2016,10,05,00,33,7.80
2016,10,05,00,34,10.10
2016,10,05,00,35,11.90
2016,10,05,00,36,9.80
2016,10,05,00,37,14.50
2016,10,05,00,38,11.50
2016,10,05,00,39,11.20
2016,10,05,00,40,8.40
2016,10,05,00,41,9.00
2016,10,05,00,42,10.10
2016,10,05,00,43,11.90
2016,10,05,00,44,12.50
2016,10,05,00,45,12.10
2016,10,05,00,46,13.70
2016,10,05,00,47,12.20
2016,10,05,00,48,10.30
2016,10,05,00,49,12.00
2016,10,05,00,50,12.70
2016,10,05,00,51,11.40
2016,10,05,00,52,11.80
2016,10,05,00,53,9.30
2016,10,05,00,54,8.80
2016,10,05,00,55,10.00
2016,10,05,00,56,9.00
2016,10,05,00,57,10.50
2016,10,05,00,58,6.40
2016,10,05,00,59,9.60
2016,10,05,01,00,8.10
2016,10,05,01,01,13.00
2016,10,05,01,02,7.80
2016,10,05,01,03,10.80
2016,10,05,01,04,7.20
2016,10,05,01,05,8.90
2016,10,05,01,06,9.30
2016,10,05,01,07,10.00
2016,10,05,01,08,14.00
2016,10,05,01,09,10.70
2016,10,05,01,10,9.00
2016,10,05,01,11,12.00
2016,10,05,01,12,7.70
2016,10,05,01,13,8.90
2016,10,05,01,14,9.60
2016,10,05,01,15,9.70
2016,10,05,01,16,10.50
2016,10,05,01,17,10.00
2016,10,05,01,18,7.90
2016,10,05,01,19,8.40
2016,10,05,01,20,7.20
2016,10,05,01,21,7.80
2016,10,05,01,22,6.10
2016,10,05,01,23,6.70
2016,10,05,01,24,4.20
2016,10,05,01,25,9.30
2016,10,05,01,26,9.70
2016,10,05,01,27,7.90
2016,10,05,01,28,4.80
2016,10,05,01,29,8.70
2016,10,05,01,30,11.70
2016,10,05,01,31,5.40
2016,10,05,01,32,7.90
2016,10,05,01,33,6.30
2016,10,05,01,34,7.70
2016,10,05,01,35,6.20
2016,10,05,01,36,6.70
2016,10,05,01,37,6.10
2016,10,05,01,38,6.40
2016,10,05,01,39,3.70
2016,10,05,01,40,4.20
2016,10,05,01,41,4.40
2016,10,05,01,42,3.60
2016,10,05,01,43,6.50
2016,10,05,01,44,5.70
2016,10,05,01,45,5.30
2016,10,05,01,46,4.30
2016,10,05,01,47,6.60
2016,10,05,01,48,7.10
2016,10,05,01,49,7.00
2016,10,05,01,50,10.20
2016,10,05,01,51,6.90
2016,10,05,01,52,4.10
2016,10,05,01,53,6.70
2016,10,05,01,54,5.10
2016,10,05,01,55,3.30
2016,10,05,01,56,5.30
2016,10,05,01,57,5.20
2016,10,05,01,58,5.20
2016,10,05,01,59,4.90
2016,10,05,02,00,5.20
2016,10,05,02,01,6.70
2016,10,05,02,02,4.00
2016,10,05,02,03,5.40
2016,10,05,02,04,6.40
2016,10,05,02,05,5.40
2016,10,05,02,06,6.80
2016,10,05,02,07,6.40
2016,10,05,02,08,5.90
2016,10,05,02,09,7.80
2016,10,05,02,10,9.50
2016,10,05,02,11,9.10
2016,10,05,02,12,6.80
2016,10,05,02,13,6.90
2016,10,05,02,14,7.50
2016,10,05,02,15,7.50
2016,10,05,02,16,7.70
2016,10,05,02,17,7.50
2016,10,05,02,18,7.20
2016,10,05,02,19,8.50
2016,10,05,02,20,5.90
2016,10,05,02,21,9.00
2016,10,05,02,22,7.70
2016,10,05,02,23,7.20
2016,10,05,02,24,7.10
2016,10,05,02,25,7.00
2016,10,05,02,26,6.70
2016,10,05,02,27,6.40
2016,10,05,02,28,9.50
2016,10,05,02,29,6.10
2016,10,05,02,30,5.70
2016,10,05,02,31,6.40
2016,10,05,02,32,8.90
2016,10,05,02,33,7.80
2016,10,05,02,34,8.10
2016,10,05,02,35,6.70
2016,10,05,02,36,10.70
2016,10,05,02,37,7.60
2016,10,05,02,38,6.50
2016,10,05,02,39,6.70
2016,10,05,02,40,5.70
2016,10,05,02,41,6.60
2016,10,05,02,42,5.00
2016,10,05,02,43,7.60
2016,10,05,02,44,6.20
2016,10,05,02,45,6.40
2016,10,05,02,46,7.10
2016,10,05,02,47,6.70
2016,10,05,02,48,11.00
2016,10,05,02,49,7.40
2016,10,05,02,50,5.40
2016,10,05,02,51,5.40
2016,10,05,02,52,5.60
2016,10,05,02,53,6.00
2016,10,05,02,54,7.50
2016,10,05,02,55,5.50
2016,10,05,02,56,7.20
2016,10,05,02,57,7.40
2016,10,05,02,58,10.30
2016,10,05,02,59,7.00
2016,10,05,03,00,7.90
2016,10,05,03,01,9.10
2016,10,05,03,02,10.80
2016,10,05,03,03,9.70
2016,10,05,03,04,7.90
2016,10,05,03,05,9.70
2016,10,05,03,06,9.10
2016,10,05,03,07,5.10
2016,10,05,03,08,9.90
2016,10,05,03,09,8.50
2016,10,05,03,10,7.60
2016,10,05,03,11,7.90
2016,10,05,03,12,5.40
2016,10,05,03,13,7.00
2016,10,05,03,14,6.80
2016,10,05,03,15,7.00
2016,10,05,03,16,7.70
2016,10,05,03,17,7.20
2016,10,05,03,18,6.60
2016,10,05,03,19,6.10
2016,10,05,03,20,9.90
2016,10,05,03,21,7.10
2016,10,05,03,22,5.70
2016,10,05,03,23,8.40
2016,10,05,03,24,5.20
2016,10,05,03,25,6.30
2016,10,05,03,26,5.30
2016,10,05,03,27,7.80
2016,10,05,03,28,5.80
2016,10,05,03,29,6.70
2016,10,05,03,30,11.00
2016,10,05,03,31,10.30
2016,10,05,03,32,6.80
2016,10,05,03,33,8.70
2016,10,05,03,34,7.80
2016,10,05,03,35,9.60
2016,10,05,03,36,7.40
2016,10,05,03,37,5.70
2016,10,05,03,38,8.80
2016,10,05,03,39,8.90
2016,10,05,03,40,6.40
2016,10,05,03,41,7.40
2016,10,05,03,42,5.30
2016,10,05,03,43,8.20
2016,10,05,03,44,9.50
2016,10,05,03,45,7.90
2016,10,05,03,46,7.40
2016,10,05,03,47,4.60
2016,10,05,03,48,8.10
2016,10,05,03,49,7.30
2016,10,05,03,50,4.70
2016,10,05,03,51,9.10
2016,10,05,03,52,6.50
2016,10,05,03,53,5.00
2016,10,05,03,54,6.20
2016,10,05,03,55,5.50
2016,10,05,03,56,6.90
2016,10,05,03,57,2.90
2016,10,05,03,58,0.80
2016,10,05,03,59,1.50
2016,10,05,04,00,2.70
2016,10,05,04,01,0.90
2016,10,05,04,02,2.80
2016,10,05,04,03,3.40
2016,10,05,04,04,3.70
2016,10,05,04,05,1.80
2016,10,05,04,06,1.40
2016,10,05,04,07,2.30
2016,10,05,04,08,0.90
2016,10,05,04,09,2.60
2016,10,05,04,10,1.50
2016,10,05,04,11,0.00
2016,10,05,04,12,1.00
2016,10,05,04,13,0.40
2016,10,05,04,14,4.10
2016,10,05,04,15,4.60
2016,10,05,04,16,2.40
2016,10,05,04,17,3.60
2016,10,05,04,18,2.90
2016,10,05,04,19,1.50
2016,10,05,04,20,3.60
2016,10,05,04,21,6.90
2016,10,05,04,22,1.50
2016,10,05,04,23,2.70
2016,10,05,04,24,3.10
2016,10,05,04,25,2.40
2016,10,05,04,26,4.40
2016,10,05,04,27,4.30
2016,10,05,04,28,4.10
2016,10,05,04,29,2.60
2016,10,05,04,30,3.40
2016,10,05,04,31,1.80
2016,10,05,04,32,1.60
2016,10,05,04,33,2.80
2016,10,05,04,34,1.80
2016,10,05,04,35,0.70
2016,10,05,04,36,2.90
2016,10,05,04,37,3.10
2016,10,05,04,38,3.00
2016,10,05,04,39,1.30
2016,10,05,04,40,2.30
2016,10,05,04,41,2.60
2016,10,05,04,42,4.80
2016,10,05,04,43,5.30
2016,10,05,04,44,3.40
2016,10,05,04,45,4.40
2016,10,05,04,46,4.10
2016,10,05,04,47,6.30
2016,10,05,04,48,3.70
2016,10,05,04,49,3.00
2016,10,05,04,50,6.40
2016,10,05,04,51,3.70
2016,10,05,04,52,5.40
2016,10,05,04,53,4.80
2016,10,05,04,54,3.70
2016,10,05,04,55,5.40
2016,10,05,04,56,5.50
2016,10,05,04,57,3.70
2016,10,05,04,58,5.70
2016,10,05,04,59,7.80
2016,10,05,05,00,6.00
2016,10,05,05,01,6.50
2016,10,05,05,02,7.40
2016,10,05,05,03,7.20
2016,10,05,05,04,4.30
2016,10,05,05,05,3.70
2016,10,05,05,06,6.40
2016,10,05,05,07,7.40
2016,10,05,05,08,5.30
2016,10,05,05,09,3.10
2016,10,05,05,10,4.20
2016,10,05,05,11,3.40
2016,10,05,05,12,7.30
2016,10,05,05,13,7.30
2016,10,05,05,14,5.20
2016,10,05,05,15,4.50
2016,10,05,05,16,3.70
2016,10,05,05,17,4.70
2016,10,05,05,18,8.20
2016,10,05,05,19,5.40
2016,10,05,05,20,4.70
2016,10,05,05,21,4.10
2016,10,05,05,22,4.60
2016,10,05,05,23,4.40
2016,10,05,05,24,3.90
2016,10,05,05,25,3.10
2016,10,05,05,26,2.40
2016,10,05,05,27,2.00
2016,10,05,05,28,2.80
2016,10,05,05,29,4.20
2016,10,05,05,30,3.40
2016,10,05,05,31,0.20
2016,10,05,05,32,0.00
2016,10,05,05,33,0.80
2016,10,05,05,34,2.60
2016,10,05,05,35,1.90
2016,10,05,05,36,0.10
2016,10,05,05,37,0.10
2016,10,05,05,38,3.30
2016,10,05,05,39,4.20
2016,10,05,05,40,6.10
2016,10,05,05,41,3.30
2016,10,05,05,42,3.40
2016,10,05,05,43,3.50
2016,10,05,05,44,1.80
2016,10,05,05,45,0.70
2016,10,05,05,46,1.20
2016,10,05,05,47,1.30
2016,10,05,05,48,1.10
2016,10,05,05,49,0.30
2016,10,05,05,50,0.50
2016,10,05,05,51,1.80
2016,10,05,05,52,0.70
2016,10,05,05,53,0.80
2016,10,05,05,54,2.30
2016,10,05,05,55,2.40
2016,10,05,05,56,2.20
2016,10,05,05,57,0.70
2016,10,05,05,58,0.20
2016,10,05,05,59,0.20
2016,10,05,06,00,3.00
2016,10,05,06,01,5.60
2016,10,05,06,02,6.00
2016,10,05,06,03,3.10
2016,10,05,06,04,1.30
2016,10,05,06,05,1.10
2016,10,05,06,06,1.00
2016,10,05,06,07,1.00
2016,10,05,06,08,1.60
2016,10,05,06,09,0.40
2016,10,05,06,10,0.00
2016,10,05,06,11,0.20
2016,10,05,06,12,0.60
2016,10,05,06,13,0.80
2016,10,05,06,14,3.70
2016,10,05,06,15,4.40
2016,10,05,06,16,3.70
2016,10,05,06,17,4.20
2016,10,05,06,18,5.50
2016,10,05,06,19,4.10
2016,10,05,06,20,2.40
2016,10,05,06,21,0.30
2016,10,05,06,22,3.40
2016,10,05,06,23,4.50
2016,10,05,06,24,4.20
2016,10,05,06,25,3.40
2016,10,05,06,26,2.90
2016,10,05,06,27,4.60
2016,10,05,06,28,3.20
2016,10,05,06,29,2.60
2016,10,05,06,30,2.50
2016,10,05,06,31,2.90
2016,10,05,06,32,4.00
2016,10,05,06,33,4.20
2016,10,05,06,34,2.90
2016,10,05,06,35,2.70
2016,10,05,06,36,4.00
2016,10,05,06,37,3.90
2016,10,05,06,38,3.90
2016,10,05,06,39,1.60
2016,10,05,06,40,3.40
2016,10,05,06,41,3.10
2016,10,05,06,42,3.80
2016,10,05,06,43,3.80
2016,10,05,06,44,4.00
2016,10,05,06,45,3.40
2016,10,05,06,46,2.90
2016,10,05,06,47,3.60
2016,10,05,06,48,4.30
2016,10,05,06,49,5.40
2016,10,05,06,50,4.60
2016,10,05,06,51,3.80
2016,10,05,06,52,3.80
2016,10,05,06,53,5.10
2016,10,05,06,54,4.20
2016,10,05,06,55,3.10
2016,10,05,06,56,4.20
2016,10,05,06,57,3.70
2016,10,05,06,58,3.10
2016,10,05,06,59,3.60
2016,10,05,07,00,4.50
2016,10,05,07,01,3.90
2016,10,05,07,02,4.10
2016,10,05,07,03,4.50
2016,10,05,07,04,4.40
2016,10,05,07,05,3.10
2016,10,05,07,06,4.30
2016,10,05,07,07,4.50
2016,10,05,07,08,4.80
2016,10,05,07,09,4.50
2016,10,05,07,10,4.40
2016,10,05,07,11,3.10
2016,10,05,07,12,5.80
2016,10,05,07,13,5.20
2016,10,05,07,14,3.90
2016,10,05,07,15,7.30
2016,10,05,07,16,5.80
2016,10,05,07,17,5.50
2016,10,05,07,18,5.70
2016,10,05,07,19,5.90
2016,10,05,07,20,5.60
2016,10,05,07,21,6.70
2016,10,05,07,22,6.00
2016,10,05,07,23,5.70
2016,10,05,07,24,5.20
2016,10,05,07,25,5.70
2016,10,05,07,26,6.50
2016,10,05,07,27,5.60
2016,10,05,07,28,6.30
2016,10,05,07,29,4.80
2016,10,05,07,30,5.90
2016,10,05,07,31,5.60
2016,10,05,07,32,5.70
2016,10,05,07,33,7.70
2016,10,05,07,34,7.40
2016,10,05,07,35,6.60
2016,10,05,07,36,8.80
2016,10,05,07,37,7.50
2016,10,05,07,38,6.00
2016,10,05,07,39,5.50
2016,10,05,07,40,4.60
2016,10,05,07,41,6.00
2016,10,05,07,42,6.90
2016,10,05,07,43,6.90
2016,10,05,07,44,5.00
2016,10,05,07,45,6.20
2016,10,05,07,46,5.50
2016,10,05,07,47,3.50
2016,10,05,07,48,6.40
2016,10,05,07,49,3.80
2016,10,05,07,50,5.50
2016,10,05,07,51,5.20
2016,10,05,07,52,5.30
2016,10,05,07,53,6.40
2016,10,05,07,54,7.00
2016,10,05,07,55,5.90
2016,10,05,07,56,6.10
2016,10,05,07,57,4.20
2016,10,05,07,58,7.40
2016,10,05,07,59,7.90
2016,10,05,08,00,6.60
2016,10,05,08,01,6.70
2016,10,05,08,02,6.70
2016,10,05,08,03,6.90
2016,10,05,08,04,8.00
2016,10,05,08,05,7.30
2016,10,05,08,06,4.60
2016,10,05,08,07,7.40
2016,10,05,08,08,5.10
2016,10,05,08,09,4.80
2016,10,05,08,10,5.00
2016,10,05,08,11,3.60
2016,10,05,08,12,3.90
2016,10,05,08,13,4.30
2016,10,05,08,14,6.10
2016,10,05,08,15,3.70
2016,10,05,08,16,3.30
2016,10,05,08,17,6.80
2016,10,05,08,18,6.00
2016,10,05,08,19,7.10
2016,10,05,08,20,9.40
2016,10,05,08,21,6.80
2016,10,05,08,22,6.70
2016,10,05,08,23,5.60
2016,10,05,08,24,7.60
2016,10,05,08,25,7.40
2016,10,05,08,26,8.40
2016,10,05,08,27,5.70
2016,10,05,08,28,7.50
2016,10,05,08,29,6.70
2016,10,05,08,30,6.40
2016,10,05,08,31,5.00
2016,10,05,08,32,4.70
2016,10,05,08,33,4.40
2016,10,05,08,34,4.10
2016,10,05,08,35,3.60
2016,10,05,08,36,3.10
2016,10,05,08,37,4.60
2016,10,05,08,38,3.90
2016,10,05,08,39,4.20
2016,10,05,08,40,6.40
2016,10,05,08,41,5.00
2016,10,05,08,42,4.70
2016,10,05,08,43,7.00
2016,10,05,08,44,6.00
2016,10,05,08,45,5.70
2016,10,05,08,46,4.20
2016,10,05,08,47,6.80
2016,10,05,08,48,5.30
2016,10,05,08,49,3.70
2016,10,05,08,50,6.00
2016,10,05,08,51,5.90
2016,10,05,08,52,5.30
2016,10,05,08,53,7.10
2016,10,05,08,54,5.90
2016,10,05,08,55,5.40
2016,10,05,08,56,7.50
2016,10,05,08,57,5.10
2016,10,05,08,58,6.10
2016,10,05,08,59,5.10
2016,10,05,09,00,5.90
2016,10,05,09,01,3.20
2016,10,05,09,02,4.20
2016,10,05,09,03,5.40
2016,10,05,09,04,4.40
2016,10,05,09,05,3.60
2016,10,05,09,06,5.70
2016,10,05,09,07,5.80
2016,10,05,09,08,3.40
2016,10,05,09,09,5.10
2016,10,05,09,10,3.40
2016,10,05,09,11,4.10
2016,10,05,09,12,4.60
2016,10,05,09,13,3.60
2016,10,05,09,14,5.30
2016,10,05,09,15,4.70
2016,10,05,09,16,4.60
2016,10,05,09,17,5.90
2016,10,05,09,18,2.80
2016,10,05,09,19,3.30
2016,10,05,09,20,4.00
2016,10,05,09,21,3.70
2016,10,05,09,22,4.90
2016,10,05,09,23,5.00
2016,10,05,09,24,6.70
2016,10,05,09,25,2.80
2016,10,05,09,26,4.00
2016,10,05,09,27,5.00
2016,10,05,09,28,5.10
2016,10,05,09,29,5.20
2016,10,05,09,30,4.50
2016,10,05,09,31,5.90
2016,10,05,09,32,7.10
2016,10,05,09,33,6.40
2016,10,05,09,34,9.10
2016,10,05,09,35,9.70
2016,10,05,09,36,7.30
2016,10,05,09,37,6.90
2016,10,05,09,38,8.90
2016,10,05,09,39,8.50
2016,10,05,09,40,10.80
2016,10,05,09,41,7.00
2016,10,05,09,42,7.80
2016,10,05,09,43,7.90
2016,10,05,09,44,9.10
2016,10,05,09,45,5.70
2016,10,05,09,46,6.70
2016,10,05,09,47,5.90
2016,10,05,09,48,8.00
2016,10,05,09,49,8.10
2016,10,05,09,50,8.10
2016,10,05,09,51,7.30
2016,10,05,09,52,5.70
2016,10,05,09,53,7.20
2016,10,05,09,54,8.40
2016,10,05,09,55,6.30
2016,10,05,09,56,5.60
2016,10,05,09,57,7.40
2016,10,05,09,58,7.20
2016,10,05,09,59,7.00
2016,10,05,10,00,5.30
2016,10,05,10,01,6.70
2016,10,05,10,02,8.10
2016,10,05,10,03,8.40
2016,10,05,10,04,8.40
2016,10,05,10,05,4.70
2016,10,05,10,06,6.40
2016,10,05,10,07,6.90
2016,10,05,10,08,7.50
2016,10,05,10,09,6.40
2016,10,05,10,10,6.10
2016,10,05,10,11,6.20
2016,10,05,10,12,9.60
2016,10,05,10,13,5.10
2016,10,05,10,14,5.70
2016,10,05,10,15,4.40
2016,10,05,10,16,5.70
2016,10,05,10,17,6.40
2016,10,05,10,18,5.40
2016,10,05,10,19,6.40
2016,10,05,10,20,6.00
2016,10,05,10,21,6.00
2016,10,05,10,22,7.00
2016,10,05,10,23,5.50
2016,10,05,10,24,4.40
2016,10,05,10,25,5.30
2016,10,05,10,26,6.40
2016,10,05,10,27,6.10
2016,10,05,10,28,7.80
2016,10,05,10,29,7.30
2016,10,05,10,30,7.10
2016,10,05,10,31,7.20
2016,10,05,10,32,6.70
2016,10,05,10,33,4.60
2016,10,05,10,34,7.60
2016,10,05,10,35,7.70
2016,10,05,10,36,6.60
2016,10,05,10,37,5.50
2016,10,05,10,38,3.80
2016,10,05,10,39,5.70
2016,10,05,10,40,4.80
2016,10,05,10,41,4.10
2016,10,05,10,42,4.10
2016,10,05,10,43,6.10
2016,10,05,10,44,4.70
2016,10,05,10,45,6.80
2016,10,05,10,46,8.60
2016,10,05,10,47,7.60
2016,10,05,10,48,5.80
2016,10,05,10,49,8.10
2016,10,05,10,50,9.00
2016,10,05,10,51,6.40
2016,10,05,10,52,5.60
2016,10,05,10,53,4.70
2016,10,05,10,54,7.30
2016,10,05,10,55,7.10
2016,10,05,10,56,7.90
2016,10,05,10,57,6.10
2016,10,05,10,58,7.50
2016,10,05,10,59,8.30
2016,10,05,11,00,4.40
2016,10,05,11,01,7.20
2016,10,05,11,02,5.40
2016,10,05,11,03,7.30
2016,10,05,11,04,8.60
2016,10,05,11,05,5.60
2016,10,05,11,06,4.00
2016,10,05,11,07,4.50
2016,10,05,11,08,6.20
2016,10,05,11,09,2.10
2016,10,05,11,10,5.40
2016,10,05,11,11,3.50
2016,10,05,11,12,4.40
2016,10,05,11,13,3.80
2016,10,05,11,14,4.80
2016,10,05,11,15,4.50
2016,10,05,11,16,8.30
2016,10,05,11,17,7.10
2016,10,05,11,18,6.90
2016,10,05,11,19,5.30
2016,10,05,11,20,5.60
2016,10,05,11,21,5.80
2016,10,05,11,22,4.80
2016,10,05,11,23,5.50
2016,10,05,11,24,3.60
2016,10,05,11,25,3.60
2016,10,05,11,26,3.70
2016,10,05,11,27,2.80
2016,10,05,11,28,4.70
2016,10,05,11,29,3.60
2016,10,05,11,30,4.50
2016,10,05,11,31,4.20
2016,10,05,11,32,2.80
2016,10,05,11,33,3.70
2016,10,05,11,34,4.20
2016,10,05,11,35,3.60
2016,10,05,11,36,6.40
2016,10,05,11,37,4.80
2016,10,05,11,38,5.50
2016,10,05,11,39,2.10
2016,10,05,11,40,2.30
2016,10,05,11,41,3.10
2016,10,05,11,42,5.20
2016,10,05,11,43,5.30
2016,10,05,11,44,5.60
2016,10,05,11,45,4.20
2016,10,05,11,46,2.10
2016,10,05,11,47,6.20
2016,10,05,11,48,6.00
2016,10,05,11,49,5.10
2016,10,05,11,50,3.90
2016,10,05,11,51,4.40
2016,10,05,11,52,4.10
2016,10,05,11,53,2.80
2016,10,05,11,54,1.80
2016,10,05,11,55,0.80
2016,10,05,11,56,3.90
2016,10,05,11,57,1.80
2016,10,05,11,58,3.10
2016,10,05,11,59,1.30
2016,10,05,12,00,1.70
2016,10,05,12,01,4.40
2016,10,05,12,02,3.90
2016,10,05,12,03,3.40
2016,10,05,12,04,1.70
2016,10,05,12,05,0.40
2016,10,05,12,06,1.50
2016,10,05,12,07,1.80
2016,10,05,12,08,4.70
2016,10,05,12,09,4.30
2016,10,05,12,10,6.00
2016,10,05,12,11,3.70
2016,10,05,12,12,1.50
2016,10,05,12,13,1.20
2016,10,05,12,14,2.30
2016,10,05,12,15,0.10
2016,10,05,12,16,3.40
2016,10,05,12,17,4.80
2016,10,05,12,18,1.90
2016,10,05,12,19,8.00
2016,10,05,12,20,3.10
2016,10,05,12,21,6.10
2016,10,05,12,22,5.00
2016,10,05,12,23,3.10
2016,10,05,12,24,4.40
2016,10,05,12,25,1.50
2016,10,05,12,26,2.60
2016,10,05,12,27,5.30
2016,10,05,12,28,5.10
2016,10,05,12,29,6.10
2016,10,05,12,30,8.10
2016,10,05,12,31,6.70
2016,10,05,12,32,3.90
2016,10,05,12,33,3.60
2016,10,05,12,34,4.30
2016,10,05,12,35,4.70
2016,10,05,12,36,7.00
2016,10,05,12,37,7.00
2016,10,05,12,38,5.40
2016,10,05,12,39,3.40
2016,10,05,12,40,4.50
2016,10,05,12,41,6.20
2016,10,05,12,42,4.10
2016,10,05,12,43,5.20
2016,10,05,12,44,6.70
2016,10,05,12,45,6.90
2016,10,05,12,46,3.70
2016,10,05,12,47,3.80
2016,10,05,12,48,3.40
2016,10,05,12,49,1.80
2016,10,05,12,50,2.10
2016,10,05,12,51,4.60
2016,10,05,12,52,4.30
2016,10,05,12,53,5.70
2016,10,05,12,54,6.10
2016,10,05,12,55,8.40
2016,10,05,12,56,8.70
2016,10,05,12,57,6.60
2016,10,05,12,58,5.60
2016,10,05,12,59,4.90
2016,10,05,13,00,2.10
2016,10,05,13,01,4.50
2016,10,05,13,02,1.50
2016,10,05,13,03,2.90
2016,10,05,13,04,4.80
2016,10,05,13,05,6.00
2016,10,05,13,06,4.10
2016,10,05,13,07,5.70
2016,10,05,13,08,6.40
2016,10,05,13,09,5.60
2016,10,05,13,10,5.30
2016,10,05,13,11,5.40
2016,10,05,13,12,3.80
2016,10,05,13,13,3.00
2016,10,05,13,14,1.80
2016,10,05,13,15,4.10
2016,10,05,13,16,6.60
2016,10,05,13,17,7.20
2016,10,05,13,18,6.10
2016,10,05,13,19,7.90
2016,10,05,13,20,8.10
2016,10,05,13,21,5.20
2016,10,05,13,22,2.80
2016,10,05,13,23,4.40
2016,10,05,13,24,5.20
2016,10,05,13,25,5.20
2016,10,05,13,26,5.70
2016,10,05,13,27,7.00
2016,10,05,13,28,5.80
2016,10,05,13,29,6.90
2016,10,05,13,30,6.30
2016,10,05,13,31,8.00
2016,10,05,13,32,10.10
2016,10,05,13,33,8.10
2016,10,05,13,34,6.70
2016,10,05,13,35,11.50
2016,10,05,13,36,11.00
2016,10,05,13,37,13.30
2016,10,05,13,38,12.40
2016,10,05,13,39,9.70
2016,10,05,13,40,8.60
2016,10,05,13,41,6.70
2016,10,05,13,42,6.40
2016,10,05,13,43,11.60
2016,10,05,13,44,12.10
2016,10,05,13,45,8.60
2016,10,05,13,46,10.00
2016,10,05,13,47,11.20
2016,10,05,13,48,8.90
2016,10,05,13,49,9.70
2016,10,05,13,50,6.40
2016,10,05,13,51,9.10
2016,10,05,13,52,9.30
2016,10,05,13,53,9.30
2016,10,05,13,54,4.10
2016,10,05,13,55,4.10
2016,10,05,13,56,3.60
2016,10,05,13,57,6.70
2016,10,05,13,58,7.70
2016,10,05,13,59,10.90
2016,10,05,14,00,10.50
2016,10,05,14,01,12.90
2016,10,05,14,02,4.80
2016,10,05,14,03,9.80
2016,10,05,14,04,9.50
2016,10,05,14,05,4.60
2016,10,05,14,06,6.10
2016,10,05,14,07,6.10
2016,10,05,14,08,3.10
2016,10,05,14,09,6.10
2016,10,05,14,10,5.00
2016,10,05,14,11,6.60
2016,10,05,14,12,4.20
2016,10,05,14,13,3.10
2016,10,05,14,14,4.70
2016,10,05,14,15,4.80
2016,10,05,14,16,4.90
2016,10,05,14,17,6.80
2016,10,05,14,18,5.80
2016,10,05,14,19,7.30
2016,10,05,14,20,7.00
2016,10,05,14,21,5.70
2016,10,05,14,22,4.00
2016,10,05,14,23,4.70
2016,10,05,14,24,2.90
2016,10,05,14,25,2.20
2016,10,05,14,26,4.50
2016,10,05,14,27,5.60
2016,10,05,14,28,5.70
2016,10,05,14,29,5.70
2016,10,05,14,30,5.20
2016,10,05,14,31,4.50
2016,10,05,14,32,1.20
2016,10,05,14,33,4.20
2016,10,05,14,34,4.20
2016,10,05,14,35,4.80
2016,10,05,14,36,4.10
2016,10,05,14,37,3.60
2016,10,05,14,38,7.30
2016,10,05,14,39,5.00
2016,10,05,14,40,3.50
2016,10,05,14,41,5.60
2016,10,05,14,42,6.30
2016,10,05,14,43,6.20
2016,10,05,14,44,5.40
2016,10,05,14,45,1.60
2016,10,05,14,46,3.70
2016,10,05,14,47,4.70
2016,10,05,14,48,4.50
2016,10,05,14,49,5.60
2016,10,05,14,50,5.20
2016,10,05,14,51,3.80
2016,10,05,14,52,5.00
2016,10,05,14,53,4.70
2016,10,05,14,54,6.90
2016,10,05,14,55,5.70
2016,10,05,14,56,3.70
2016,10,05,14,57,6.50
2016,10,05,14,58,7.90
2016,10,05,14,59,7.20
2016,10,05,15,00,4.30
2016,10,05,15,01,5.30
2016,10,05,15,02,4.20
2016,10,05,15,03,5.00
2016,10,05,15,04,4.90
2016,10,05,15,05,3.90
2016,10,05,15,06,7.50
2016,10,05,15,07,9.00
2016,10,05,15,08,9.00
2016,10,05,15,09,7.90
2016,10,05,15,10,8.20
2016,10,05,15,11,10.90
2016,10,05,15,12,11.10
2016,10,05,15,13,10.00
2016,10,05,15,14,9.10
2016,10,05,15,15,7.90
2016,10,05,15,16,8.50
2016,10,05,15,17,9.90
2016,10,05,15,18,7.80
2016,10,05,15,19,3.50
2016,10,05,15,20,5.40
2016,10,05,15,21,6.40
2016,10,05,15,22,10.20
2016,10,05,15,23,8.80
2016,10,05,15,24,5.70
2016,10,05,15,25,5.40
2016,10,05,15,26,7.90
2016,10,05,15,27,9.40
2016,10,05,15,28,12.10
2016,10,05,15,29,7.00
2016,10,05,15,30,6.90
2016,10,05,15,31,8.10
2016,10,05,15,32,10.20
2016,10,05,15,33,9.20
2016,10,05,15,34,7.60
2016,10,05,15,35,8.30
2016,10,05,15,36,11.10
2016,10,05,15,37,11.20
2016,10,05,15,38,8.90
2016,10,05,15,39,10.40
2016,10,05,15,40,7.50
2016,10,05,15,41,9.10
2016,10,05,15,42,9.30
2016,10,05,15,43,6.10
2016,10,05,15,44,9.10
2016,10,05,15,45,6.50
2016,10,05,15,46,5.10
2016,10,05,15,47,11.90
2016,10,05,15,48,12.30
2016,10,05,15,49,9.60
2016,10,05,15,50,6.40
2016,10,05,15,51,7.90
2016,10,05,15,52,6.50
2016,10,05,15,53,10.40
2016,10,05,15,54,9.30
2016,10,05,15,55,8.10
2016,10,05,15,56,7.40
2016,10,05,15,57,4.90
2016,10,05,15,58,5.60
2016,10,05,15,59,3.90
2016,10,05,16,00,6.00
2016,10,05,16,01,4.00
2016,10,05,16,02,5.20
2016,10,05,16,03,6.30
2016,10,05,16,04,5.70
2016,10,05,16,05,7.70
2016,10,05,16,06,5.20
2016,10,05,16,07,8.00
2016,10,05,16,08,6.80
2016,10,05,16,09,7.10
2016,10,05,16,10,6.40
2016,10,05,16,11,5.60
2016,10,05,16,12,6.10
2016,10,05,16,13,2.50
2016,10,05,16,14,3.70
2016,10,05,16,15,4.50
2016,10,05,16,16,4.40
2016,10,05,16,17,4.80
2016,10,05,16,18,5.60
2016,10,05,16,19,3.90
2016,10,05,16,20,4.30
2016,10,05,16,21,4.40
2016,10,05,16,22,4.80
2016,10,05,16,23,5.60
2016,10,05,16,24,5.60
2016,10,05,16,25,3.80
2016,10,05,16,26,2.20
2016,10,05,16,27,1.90
2016,10,05,16,28,2.80
2016,10,05,16,29,3.50
2016,10,05,16,30,1.50
2016,10,05,16,31,3.10
2016,10,05,16,32,4.40
2016,10,05,16,33,4.40
2016,10,05,16,34,4.20
2016,10,05,16,35,3.40
2016,10,05,16,36,2.30
2016,10,05,16,37,3.80
2016,10,05,16,38,5.20
2016,10,05,16,39,6.00
2016,10,05,16,40,1.10
2016,10,05,16,41,5.60
2016,10,05,16,42,5.50
2016,10,05,16,43,4.80
2016,10,05,16,44,4.50
2016,10,05,16,45,3.90
2016,10,05,16,46,6.60
2016,10,05,16,47,3.00
2016,10,05,16,48,1.50
2016,10,05,16,49,4.80
2016,10,05,16,50,5.30
2016,10,05,16,51,6.00
2016,10,05,16,52,4.30
2016,10,05,16,53,3.90
2016,10,05,16,54,5.50
2016,10,05,16,55,6.90
2016,10,05,16,56,6.40
2016,10,05,16,57,4.70
2016,10,05,16,58,5.30
2016,10,05,16,59,7.00
2016,10,05,17,00,6.20
2016,10,05,17,01,5.70
2016,10,05,17,02,5.90
2016,10,05,17,03,4.80
2016,10,05,17,04,4.60
2016,10,05,17,05,4.40
2016,10,05,17,06,4.80
2016,10,05,17,07,4.30
2016,10,05,17,08,5.90
2016,10,05,17,09,5.80
2016,10,05,17,10,3.10
2016,10,05,17,11,3.50
2016,10,05,17,12,2.40
2016,10,05,17,13,2.40
2016,10,05,17,14,3.10
2016,10,05,17,15,3.80
2016,10,05,17,16,6.20
2016,10,05,17,17,4.50
2016,10,05,17,18,2.00
2016,10,05,17,19,2.30
2016,10,05,17,20,3.50
2016,10,05,17,21,3.90
2016,10,05,17,22,2.50
2016,10,05,17,23,4.10
2016,10,05,17,24,3.90
2016,10,05,17,25,5.10
2016,10,05,17,26,5.30
2016,10,05,17,27,3.90
2016,10,05,17,28,4.10
2016,10,05,17,29,3.70
2016,10,05,17,30,5.70
2016,10,05,17,31,4.40
2016,10,05,17,32,2.60
2016,10,05,17,33,3.70
2016,10,05,17,34,3.00
2016,10,05,17,35,5.70
2016,10,05,17,36,4.10
2016,10,05,17,37,2.60
2016,10,05,17,38,3.80
2016,10,05,17,39,5.10
2016,10,05,17,40,5.20
2016,10,05,17,41,5.00
2016,10,05,17,42,6.20
2016,10,05,17,43,6.50
2016,10,05,17,44,5.10
2016,10,05,17,45,2.80
2016,10,05,17,46,3.50
2016,10,05,17,47,1.50
2016,10,05,17,48,1.90
2016,10,05,17,49,2.30
2016,10,05,17,50,1.60
2016,10,05,17,51,4.60
2016,10,05,17,52,2.10
2016,10,05,17,53,2.30
2016,10,05,17,54,3.50
2016,10,05,17,55,3.80
2016,10,05,17,56,1.30
2016,10,05,17,57,2.00
2016,10,05,17,58,3.10
2016,10,05,17,59,3.00
2016,10,05,18,00,1.00
2016,10,05,18,01,1.00
2016,10,05,18,02,4.90